Home > Weather > Schorndorf > Past weeks

Flag for Germany Weather for the Past 2 Weeks in Schorndorf, Baden-Württemberg, Germany

Now
34 °F

Clear.


Feels Like: 34 °F
Forecast: 40 / 53 °F
Wind: 2 mph from North

Location: Stuttgart-Echterdingen

Current Time: Feb 7, 2016 at 5:57:30 AM

Latest Report: Feb 7, 2016 at 5:20 AM


Visibility: 10 mi

Pressure: 29.68 "Hg

Humidity: 93%

Dew point: 32 °F

Location of SchorndorfLocation

Historic Weather in Schorndorf — Graph

°F

Schorndorf Temperature Yesterday

Maximum temperature yesterday: 57 °F (at 1:20 PM)
Minimum temperature yesterday: 32 °F (at 4:20 AM)
Average temperature yesterday: 43 °F

High & Low Weather Summary for the Past Weeks

 TemperatureHumidityPressure
High61 °F (Jan 26, 2:20 PM)100% (Jan 23, 4:20 AM)30.63 "Hg (Jan 23, 4:20 AM)
Low25 °F (Jan 24, 4:20 AM)44% (Feb 6, 1:20 PM)29.68 "Hg (Feb 7, 3:50 AM)
Average43 °F82%30.23 "Hg
* Reported Jan 23 4:20 AM — Feb 7 4:20 AM, Schorndorf, Weather by CustomWeather, © 2016

Note: Actual official high and low records may vary slightly from our data, if they occured in-between our weather recording intervals... More about our weather records

Advertising

Schorndorf Weather History for the Previous 24 Hours

 ConditionsComfort  
Time TempWeatherWind HumidityBarometerVisibility
4:20 AM
Sun, Feb 7
36 °FClear.1 mph87%29.68 "Hg10 mi
3:50 AM37 °FClear.2 mph81%29.68 "Hg10 mi
3:20 AM39 °FClear.2 mph75%29.71 "Hg10 mi
2:20 AM41 °FClear.2 mph76%29.74 "Hg10 mi
1:50 AM39 °FClear.5 mph75%29.74 "Hg10 mi
1:20 AM41 °FPassing clouds.5 mph76%29.74 "HgN/A
12:50 AM36 °FClear.3 mph81%29.74 "Hg10 mi
12:20 AM37 °FClear.1 mph81%29.77 "Hg10 mi
11:50 PM
Sat, Feb 6
39 °FClear.1 mph81%29.77 "Hg10 mi
11:20 PM41 °FClear.2 mph76%29.77 "Hg10 mi
10:50 PM41 °FPassing clouds.3 mph76%29.77 "HgN/A
9:50 PM43 °FPassing clouds.3 mph76%29.80 "HgN/A
9:20 PM43 °FClear.3 mph76%29.80 "Hg10 mi
8:50 PM43 °FClear.2 mph71%29.83 "Hg10 mi
8:20 PM45 °FPassing clouds.6 mph76%29.83 "HgN/A
7:50 PM46 °FClear.2 mph71%29.86 "Hg10 mi
7:20 PM45 °FPassing clouds.5 mph76%29.86 "HgN/A
6:50 PM45 °FPassing clouds.3 mph76%29.86 "HgN/A
6:20 PM45 °FClear.1 mph76%29.86 "Hg10 mi
5:50 PM46 °FClear.2 mph76%29.89 "Hg10 mi
5:20 PM50 °FSunny.2 mph67%29.89 "Hg10 mi
4:50 PM52 °FPassing clouds.3 mph67%29.92 "HgN/A
4:20 PM54 °FSunny.6 mph63%29.92 "Hg10 mi
3:50 PM55 °FSunny.3 mph63%29.95 "Hg10 mi
3:20 PM57 °FSunny.2 mph51%29.95 "Hg10 mi
2:50 PM57 °FPassing clouds.3 mph48%29.95 "HgN/A
2:20 PM57 °FPassing clouds.6 mph51%29.98 "HgN/A
1:50 PM57 °FPassing clouds.9 mph48%29.98 "HgN/A
1:20 PM57 °FPassing clouds.8 mph44%30.01 "HgN/A
12:50 PM55 °FPassing clouds.8 mph51%30.01 "HgN/A
12:20 PM52 °FSunny.3 mph67%30.04 "Hg10 mi
11:50 AM48 °FPassing clouds.6 mph76%30.07 "HgN/A
11:20 AM45 °FPassing clouds.3 mph87%30.07 "HgN/A
10:50 AM41 °FSunny.2 mph93%30.07 "Hg10 mi
10:20 AM39 °FSunny.2 mph93%30.07 "Hg10 mi
9:50 AM36 °FSunny.1 mph93%30.07 "Hg10 mi
9:20 AM34 °FSunny.1 mph100%30.09 "Hg10 mi
8:50 AM34 °FSunny.2 mph100%30.09 "Hg10 mi
8:20 AM34 °FSunny.2 mph93%30.09 "Hg10 mi
7:50 AM34 °FSunny.2 mph93%30.09 "Hg10 mi
7:20 AM37 °FFog.2 mph100%30.09 "HgN/A
6:50 AM34 °FClear.1 mph93%30.09 "Hg10 mi
6:20 AM32 °FClear.2 mph100%30.09 "Hg10 mi
5:50 AM34 °FClear.2 mph100%30.09 "Hg10 mi
5:20 AM34 °FClear.1 mph93%30.09 "Hg10 mi
Weather by CustomWeather, © 2016

See weather overviewHow to use our weather pages